Theta_e
290 290 289 288 287 286 286 286 285 285 285 285 284 283 283 283 281 283 284 284 284 284 285 285 285 285 285 286 288 289 289 292 293 294 294 296 299 300 302 306 311 311 318
288 287 287 287 286 286 286 285 285 285 285 285 284 283 283 283 281 282 283 284 284 283 284 285 284 285 285 285 287 289 289 290 291 291 293 295 296 297 300 301 302 304 308
287 287 286 286 286 285 285 285 285 285 285 284 283 283 283 282 282 283 284 285 285 284 283 284 284 285 285 285 285 287 288 289 289 290 290 292 293 295 296 298 300 302 301
287 286 286 285 285 285 285 285 285 285 285 284 284 284 283 283 283 283 284 285 285 284 284 283 283 283 285 285 285 286 287 288 288 288 288 290 291 292 293 295 297 298 300
287 286 285 285 285 285 284 285 285 285 285 285 285 284 283 283 283 283 284 285 285 284 284 282 282 282 285 285 285 285 285 286 286 286 287 288 289 289 290 291 293 295 296
286 285 285 284 284 284 284 285 285 285 285 285 285 284 283 283 283 283 284 284 285 284 284 283 282 282 283 285 284 285 285 284 285 285 285 286 286 288 289 290 291 293 293
286 285 285 284 284 283 284 285 285 285 285 285 285 285 283 283 282 283 283 283 284 284 284 283 282 281 283 283 283 285 284 284 285 285 285 285 285 286 287 289 290 290 290
286 285 284 284 283 283 284 284 284 285 285 285 285 284 283 282 282 283 284 283 283 283 283 281 281 281 280 282 282 283 284 284 285 286 285 285 285 285 286 287 289 291 289
285 284 284 283 283 283 283 283 284 284 284 284 285 284 283 282 281 282 284 284 283 281 281 280 279 278 279 281 282 282 283 284 285 285 285 285 285 285 285 286 287 288 289
284 283 283 282 282 282 282 283 282 283 283 283 283 283 282 281 280 280 281 282 282 280 279 279 278 279 279 279 281 281 282 282 283 284 284 285 285 285 285 285 285 285 286
282 281 281 282 282 281 281 282 281 281 281 281 281 281 280 279 279 279 278 278 279 278 279 279 279 279 279 279 278 279 280 281 282 282 283 283 284 285 285 285 285 286 286
281 281 282 282 282 281 280 280 279 280 280 280 280 279 279 278 280 280 279 278 278 279 279 279 278 278 279 279 278 278 279 281 281 281 282 282 283 284 284 285 285 286 286
282 282 282 281 282 281 280 279 278 278 278 278 278 277 278 279 280 282 281 278 278 279 279 279 278 278 278 278 278 278 279 280 279 280 280 281 281 282 283 284 285 286 287
282 281 282 281 281 281 281 280 278 278 278 277 277 277 278 278 278 280 280 279 280 279 278 278 278 278 278 278 278 278 278 279 279 279 280 280 281 281 282 282 283 284 285
282 281 281 281 281 281 280 281 279 278 278 277 277 276 278 277 277 277 278 278 278 279 278 279 279 279 280 279 279 279 279 279 279 279 280 280 280 281 282 282 283 283 284
281 281 281 281 280 280 280 280 279 279 278 278 277 277 278 277 277 279 280 280 279 280 280 279 278 278 278 278 279 279 279 279 279 279 279 279 280 280 281 282 282 283 283
280 281 280 280 280 280 279 279 279 279 279 278 277 278 278 277 278 279 281 282 280 281 280 278 278 278 279 279 279 279 279 279 280 280 279 279 280 280 281 282 282 283 283
280 280 280 279 279 279 279 279 279 278 278 278 277 278 279 277 277 278 281 282 282 281 279 278 278 278 279 280 280 280 281 281 281 281 281 281 281 281 282 283 283 284 285
279 280 279 279 279 279 279 279 278 278 278 278 278 278 279 277 277 278 279 281 279 279 279 278 278 279 280 281 281 281 281 281 282 282 282 282 282 282 283 284 284 285 285
279 279 279 279 278 278 278 278 278 278 278 277 277 276 277 278 278 278 278 279 280 279 279 278 279 280 281 281 282 283 283 283 283 283 283 283 283 283 283 284 284 285 284
279 279 279 279 278 278 278 277 278 277 277 277 276 276 276 276 276 277 278 279 279 278 278 278 280 281 281 282 283 283 283 284 284 284 283 284 284 283 283 284 284 284 284
279 279 279 279 279 279 278 277 277 277 277 277 277 276 276 276 276 277 278 279 279 278 278 279 280 280 281 282 283 284 284 284 284 284 284 284 284 283 283 283 283 283 284
279 279 279 279 279 279 278 278 277 277 277 277 277 276 276 276 276 277 278 279 280 280 279 280 280 282 282 283 283 284 284 284 284 285 285 284 284 284 284 283 283 283 283
279 279 279 279 279 279 278 278 278 277 277 277 277 276 276 276 276 277 278 280 280 280 280 280 280 281 282 283 284 284 284 284 284 285 285 284 285 285 285 284 283 283 283
279 279 279 279 279 279 278 278 278 278 277 277 277 277 276 276 276 277 278 279 280 280 280 280 280 280 281 282 283 283 284 284 285 285 285 285 285 285 285 284 284 284 284
280 279 279 279 279 279 279 278 278 278 277 277 277 277 277 276 276 276 277 277 278 279 279 279 279 279 279 280 281 282 283 284 285 285 285 285 285 285 285 285 285 284 284
Wind_Speed
18 19 20 21 21 20 20 22 25 26 28 29 31 33 31 33 36 25 25 29 27 31 28 29 32 28 32 31 24 24 21 5 4 2 6 8 7 9 7 4 2 3 10
18 19 20 20 20 20 20 22 24 25 26 26 31 33 33 34 36 25 24 26 27 33 27 28 35 27 30 34 30 25 24 21 10 12 12 14 14 14 13 10 7 7 5
17 19 20 20 20 20 20 21 23 25 25 29 32 35 34 38 34 27 27 27 20 29 26 28 33 26 29 30 38 30 23 23 19 19 17 16 17 17 16 14 12 10 12
16 17 19 20 20 20 20 20 22 24 27 31 34 35 35 39 35 24 25 26 22 26 30 20 27 25 25 29 28 37 26 23 21 20 20 19 19 18 17 14 16 13 12
16 17 18 19 18 19 20 20 21 26 29 30 31 33 36 39 41 23 23 26 24 24 26 25 23 24 16 24 23 31 32 25 26 25 22 22 21 22 24 19 12 11 15
15 16 17 19 19 20 21 21 22 25 28 27 27 31 34 37 42 20 18 24 25 26 25 31 26 26 17 15 24 21 28 31 28 25 24 25 22 17 20 20 20 12 8
15 15 17 18 20 21 22 22 24 26 27 27 26 31 32 36 42 35 20 16 23 26 29 32 33 27 24 20 16 9 15 22 28 29 27 27 28 20 17 17 17 16 16
14 15 16 17 19 22 23 24 24 25 25 24 26 30 32 35 40 37 31 24 17 25 24 30 33 30 31 23 20 18 14 17 22 23 25 25 26 22 15 13 14 9 11
14 15 15 16 18 21 23 24 23 22 24 22 25 27 30 33 38 37 35 31 21 22 22 24 30 31 31 29 24 22 17 16 18 20 18 21 22 25 21 15 16 11 13
13 14 14 15 17 20 20 21 19 19 21 20 20 23 25 31 36 36 35 34 29 24 25 31 30 30 28 29 26 24 22 20 18 15 12 14 15 19 23 22 19 19 14
12 13 15 16 17 18 16 18 19 18 18 21 20 22 25 30 36 35 33 34 31 26 30 31 30 27 25 26 25 24 20 17 17 17 16 14 16 18 19 19 20 18 17
12 17 18 16 16 18 18 17 22 23 24 26 27 29 30 34 36 35 32 32 29 26 27 27 26 24 22 23 25 24 22 19 19 20 20 20 20 19 17 13 14 13 15
14 17 17 16 15 18 20 22 24 28 28 30 31 33 34 36 37 35 33 33 30 26 24 24 23 23 23 24 24 25 24 24 23 23 24 22 19 16 14 12 12 11 13
16 12 11 14 14 15 20 23 25 26 28 32 35 34 34 37 38 37 35 37 34 28 26 25 25 25 25 25 26 26 28 27 26 25 24 21 19 20 20 19 19 16 14
9 12 10 13 14 14 17 20 23 24 28 33 36 33 33 35 35 31 30 32 33 29 28 30 32 32 31 31 29 29 31 30 28 26 26 25 24 22 23 22 20 18 18
6 9 12 10 12 14 16 16 20 22 26 29 31 29 26 29 30 30 29 29 31 32 34 35 35 34 32 31 31 31 30 29 28 26 25 25 24 23 24 22 22 22 20
11 8 10 11 13 16 18 19 21 22 20 23 28 26 25 28 30 31 30 31 34 34 37 37 36 34 32 31 31 31 30 28 25 25 24 24 23 25 27 25 26 25 25
7 10 10 12 13 14 15 16 18 20 22 23 26 27 25 29 31 31 31 31 37 38 38 37 36 34 32 32 32 31 29 29 27 26 25 24 24 27 27 26 26 27 26
8 6 9 10 13 12 13 14 16 18 20 22 26 27 25 29 30 32 32 35 36 37 37 37 35 34 33 33 32 30 30 29 27 26 26 26 26 28 28 27 27 27 25
8 8 10 9 9 11 13 14 15 18 20 22 25 29 28 30 33 35 34 32 34 35 36 36 35 34 34 33 32 31 31 29 27 27 26 26 27 29 29 28 25 25 24
4 7 10 9 12 12 12 14 15 17 19 20 22 25 27 28 31 32 33 32 32 34 35 35 34 34 34 32 31 31 30 28 27 26 26 27 28 30 26 25 25 26 26
4 7 8 9 12 12 12 14 16 17 18 20 21 24 26 27 29 31 32 31 30 32 33 32 33 34 33 32 31 30 29 28 28 27 27 27 28 24 24 25 26 27 27
4 5 6 9 10 10 12 14 15 17 18 19 21 24 26 27 29 30 30 31 30 33 33 33 35 33 32 30 29 29 28 27 26 25 26 26 25 24 23 23 24 25 26
2 4 5 8 8 9 11 13 14 15 17 18 20 22 24 26 27 28 28 30 31 34 35 37 38 37 34 31 29 27 26 25 23 22 23 22 23 23 23 23 23 22 22
1 2 4 6 7 9 10 11 13 14 15 17 19 20 22 23 24 26 26 27 29 32 33 35 37 38 38 38 35 29 25 22 20 21 21 20 21 22 21 22 23 23 23
2 1 2 4 5 7 8 9 11 12 13 15 17 18 20 21 23 24 24 25 26 28 30 31 32 34 35 36 37 36 33 27 22 22 22 21 19 21 22 21 22 24 24
Wind_Direction
358 357 352 353 353 353 356 358 359 358 356 355 346 350 0 354 357 1 7 12 8 352 5 3 6 17 16 15 18 28 25 7 220 313 31 45 50 56 51 37 313 308 275
355 358 352 354 355 355 359 1 1 359 357 350 348 1 3 353 359 7 359 358 11 1 0 3 358 14 22 20 21 31 41 41 67 62 58 59 63 63 65 74 90 78 91
357 360 354 357 357 357 0 4 4 1 353 351 2 6 1 355 3 15 14 9 1 355 2 13 354 8 17 18 19 22 36 44 46 49 52 57 59 65 68 74 75 78 83
0 1 356 357 357 357 0 5 7 357 355 6 8 5 1 353 4 15 17 16 18 359 356 13 357 4 21 22 11 15 24 39 38 49 42 51 56 56 55 59 66 73 76
3 1 359 357 356 357 3 8 10 1 7 4 4 3 357 356 2 10 17 16 9 6 354 8 10 9 33 32 16 13 16 33 37 35 39 41 45 48 47 42 51 73 67
5 3 359 358 358 1 5 7 12 6 5 4 4 2 359 355 358 14 17 19 10 7 353 353 7 2 25 40 38 9 11 29 34 31 33 38 35 43 50 45 42 58 61
4 4 360 360 359 3 4 12 12 5 3 6 3 0 3 352 356 10 21 27 24 10 355 354 360 4 19 26 35 41 41 27 24 28 34 35 33 34 41 44 47 35 42
2 2 0 0 359 1 6 12 8 3 1 4 2 358 2 354 355 7 15 22 33 20 2 351 357 11 13 19 20 28 41 43 30 28 27 28 28 30 37 37 41 45 34
3 359 358 2 1 4 12 6 2 4 1 3 5 358 2 351 355 6 10 14 22 23 358 3 1 14 9 15 23 29 38 52 46 32 29 27 25 19 27 38 45 50 41
1 354 359 9 8 5 8 3 360 8 3 2 7 359 359 352 358 8 9 11 13 16 12 9 11 13 11 13 22 23 29 33 30 31 45 46 44 34 26 33 34 35 41
359 1 15 26 11 359 9 2 3 15 10 11 15 8 7 1 5 10 11 13 10 15 17 6 7 12 12 14 21 23 28 35 38 37 41 47 51 45 34 35 31 29 33
22 29 29 25 9 357 12 12 16 22 22 19 20 18 16 11 12 12 15 14 13 21 16 2 6 13 19 19 22 23 31 38 40 38 37 34 36 36 31 38 38 39 29
35 34 20 4 21 358 4 12 18 22 21 21 17 15 14 14 14 16 19 15 14 23 17 7 15 22 26 29 29 26 32 34 36 36 31 28 29 28 32 45 54 66 54
18 15 20 6 18 10 1 10 15 17 18 19 15 12 14 14 12 11 17 15 15 22 21 20 26 30 33 33 34 35 37 35 35 34 28 25 29 34 38 38 39 43 50
12 2 36 11 11 17 9 7 11 18 17 15 8 9 15 13 9 7 13 12 12 23 24 28 29 30 30 32 36 37 36 31 33 33 28 29 31 38 37 34 35 36 34
25 18 12 21 13 19 19 15 16 20 14 11 3 9 20 16 12 17 23 22 21 28 33 31 29 28 28 28 30 33 33 29 27 29 27 27 25 33 32 32 33 31 30
33 38 14 21 25 23 17 18 18 25 23 8 6 14 25 17 18 23 29 31 30 31 35 33 30 29 29 32 32 31 27 26 25 29 28 28 32 39 33 34 36 37 37
34 20 18 18 27 26 16 16 16 13 16 12 13 19 26 27 22 24 29 30 34 35 34 32 28 29 29 31 31 27 27 27 27 30 34 37 43 41 34 31 28 20 18
27 33 43 19 22 17 15 17 16 17 17 14 14 23 27 31 28 28 29 32 31 30 30 30 27 29 30 31 29 28 28 27 30 36 41 43 41 38 31 26 25 25 24
20 29 46 22 18 20 15 17 17 19 18 18 14 14 22 28 28 27 27 30 32 30 29 28 26 28 29 29 28 28 30 31 36 40 42 40 37 36 27 23 23 22 22
14 25 37 23 22 23 22 19 23 23 20 21 20 18 26 29 29 27 27 28 32 30 27 25 25 28 26 26 28 30 32 34 36 37 37 37 36 33 29 30 27 27 26
49 40 33 33 29 27 38 30 33 32 28 27 29 29 31 34 34 30 31 31 34 35 29 25 27 25 23 24 25 28 30 32 34 37 38 37 36 33 33 33 30 31 31
63 56 38 43 35 33 41 42 37 35 32 32 33 34 33 35 35 33 34 34 37 40 34 34 30 27 27 26 26 26 27 28 28 30 33 32 30 30 32 35 34 35 36
73 57 45 45 34 34 39 40 38 37 36 35 35 37 36 36 36 37 38 39 42 47 42 43 39 34 31 28 28 27 27 26 25 30 33 31 30 33 33 36 35 33 37
111 72 56 47 34 33 35 38 38 37 37 37 37 39 39 38 38 39 39 41 40 45 43 43 42 38 36 35 34 29 26 22 23 29 30 30 28 33 33 34 34 33 35
202 117 57 39 35 31 32 33 36 34 34 37 37 37 38 37 37 38 38 40 39 41 42 39 38 38 35 35 34 34 32 29 27 32 31 32 31 35 34 36 36 36 37